Date String (YYYY-MM-DD hh:mm:ss) UTC,Instrument flags,absolute air pressure of the measurement (hPa),sample flow rate (lpm),inlet stack bypass flow (lpm),air temperature of the measurement (°C),ambient temperature measured by the external sensor (°C),aerosol sample conditioner tube jacket temperature (°C),OPC LED temperature (°C),internal box temperature (°C),relative humidity of the measurement (%),span deviation,mass concentration of particles derived from Lorenz-Mie calculation of OPC scattering (μg/m³),mass concentration of particles derived from Lorenz-Mie calculation of OPC scattering (μg/m³),mass concentration of particles derived from Lorenz-Mie calculation of OPC scattering (μg/m³)
DateTimeUTC,F1_M11,P_M11,Q1_M11,Q2_M11,T1_M11,T2_M11,T3_M11,T4_M11,T5_M11,U1_M11,ZSPAN_M11,X0_M11,X2_M11,X1_M11
2023-12-29 03:00:00,SystemResetWarning,0834.4,5.00,000.00,022.6,021.2,000.0,031.0,023.9,8.3,0000.0,0003.78,0001.85,0001.45
2023-12-29 03:01:00,SystemResetWarning,0834.4,5.00,000.00,022.6,021.2,000.0,031.0,023.9,8.2,0000.0,0004.39,0001.90,0001.47
2023-12-29 03:02:00,SystemResetWarning,0834.4,5.00,000.00,022.6,021.1,000.0,031.0,023.9,8.2,0000.0,0004.34,0001.89,0001.47
2023-12-29 03:03:00,SystemResetWarning,0834.4,5.00,000.00,022.5,021.1,000.0,031.0,023.8,8.2,0000.0,0004.25,0001.85,0001.47
2023-12-29 03:04:00,SystemResetWarning,0834.4,5.00,000.00,022.5,021.1,000.0,031.0,023.8,8.2,0000.0,0004.14,0001.80,0001.46
2023-12-29 03:05:00,SystemResetWarning,0834.3,5.00,000.00,022.5,021.1,000.0,031.0,023.8,8.2,0000.0,0004.19,0001.83,0001.46
2023-12-29 03:06:00,SystemResetWarning,0834.3,5.00,000.00,022.5,021.1,000.0,030.9,023.8,8.2,0000.0,0004.28,0001.86,0001.46
2023-12-29 03:07:00,SystemResetWarning,0834.4,5.00,000.00,022.5,021.1,000.0,030.9,023.8,8.2,0000.0,0004.25,0001.87,0001.48
2023-12-29 03:08:00,SystemResetWarning,0834.4,5.00,000.00,022.5,021.1,000.0,030.9,023.8,8.3,0000.0,0004.22,0001.89,0001.47
2023-12-29 03:09:00,SystemResetWarning,0834.4,5.00,000.00,022.4,021.0,000.0,030.9,023.8,8.3,0000.0,0004.10,0001.83,0001.45
2023-12-29 03:10:00,SystemResetWarning,0834.4,5.00,000.00,022.4,021.0,000.0,030.9,023.8,8.3,0000.0,0003.86,0001.81,0001.45
2023-12-29 03:11:00,SystemResetWarning,0834.4,5.00,000.00,022.4,021.0,000.0,030.9,023.8,8.3,0000.0,0003.60,0001.81,0001.46
2023-12-29 03:12:00,SystemResetWarning,0834.4,5.01,000.00,022.4,021.0,000.0,030.8,023.7,8.3,0000.0,0002.93,0001.78,0001.45
2023-12-29 03:13:00,SystemResetWarning,0834.4,5.01,000.00,022.4,021.0,000.0,030.8,023.7,8.4,0000.0,0002.95,0001.78,0001.45
2023-12-29 03:14:00,SystemResetWarning,0834.3,5.00,000.00,022.4,021.0,000.0,030.8,023.7,8.5,0000.0,0003.10,0001.81,0001.45
2023-12-29 03:15:00,SystemResetWarning,0834.4,5.00,000.00,022.4,021.0,000.0,030.8,023.7,8.3,0000.0,0003.18,0001.84,0001.45
2023-12-29 03:16:00,SystemResetWarning,0834.4,4.99,000.00,022.3,020.9,000.0,030.8,023.7,8.3,0000.0,0003.13,0001.86,0001.48
2023-12-29 03:17:00,SystemResetWarning,0834.4,5.00,000.00,022.3,020.9,000.0,030.8,023.7,8.4,0000.0,0003.15,0001.88,0001.48
2023-12-29 03:18:00,SystemResetWarning,0834.4,4.99,000.00,022.3,020.9,000.0,030.8,023.7,8.4,0000.0,0003.15,0001.87,0001.47
2023-12-29 03:19:00,SystemResetWarning,0834.4,5.01,000.00,022.3,020.9,000.0,030.7,023.6,8.4,0000.0,0002.98,0001.83,0001.47
2023-12-29 03:20:00,SystemResetWarning,0834.4,5.00,000.00,022.3,020.9,000.0,030.7,023.6,8.4,0000.0,0002.76,0001.84,0001.47
2023-12-29 03:21:00,SystemResetWarning,0834.4,5.00,000.00,022.3,020.9,000.0,030.7,023.6,8.2,0000.0,0002.86,0001.84,0001.46
2023-12-29 03:22:00,SystemResetWarning,0834.4,4.99,000.00,022.3,020.9,000.0,030.7,023.6,8.2,0000.0,0002.85,0001.83,0001.46
2023-12-29 03:23:00,SystemResetWarning,0834.4,5.00,000.00,022.3,020.9,000.0,030.7,023.6,8.1,0000.0,0002.92,0001.81,0001.46
2023-12-29 03:24:00,SystemResetWarning,0834.3,4.99,000.00,022.2,020.9,000.0,030.7,023.5,8.1,0000.0,0003.05,0001.82,0001.44
2023-12-29 03:25:00,SystemResetWarning,0834.4,4.99,000.00,022.2,020.9,000.0,030.7,023.5,8.1,0000.0,0003.08,0001.82,0001.44
2023-12-29 03:26:00,SystemResetWarning,0834.4,5.00,000.00,022.2,020.8,000.0,030.7,023.5,8.1,0000.0,0003.02,0001.80,0001.43
2023-12-29 03:27:00,SystemResetWarning,0834.4,4.99,000.00,022.2,020.8,000.0,030.6,023.5,8.1,0000.0,0002.89,0001.74,0001.41
2023-12-29 03:28:00,SystemResetWarning,0834.4,5.00,000.00,022.2,020.8,000.0,030.6,023.5,8.2,0000.0,0002.75,0001.68,0001.39
2023-12-29 03:29:00,SystemResetWarning,0834.4,5.00,000.00,022.2,020.8,000.0,030.6,023.5,8.1,0000.0,0002.72,0001.67,0001.38
2023-12-29 03:30:00,SystemResetWarning,0834.4,5.01,000.00,022.2,020.8,000.0,030.6,023.5,8.1,0000.0,0002.75,0001.68,0001.37
2023-12-29 03:31:00,SystemResetWarning,0834.4,5.00,000.00,022.2,020.8,000.0,030.6,023.5,8.1,0000.0,0002.82,0001.69,0001.37
2023-12-29 03:32:00,SystemResetWarning,0834.4,5.00,000.00,022.1,020.7,000.0,030.6,023.5,8.0,0000.0,0002.85,0001.70,0001.38
2023-12-29 03:33:00,SystemResetWarning,0834.4,5.00,000.00,022.1,020.7,000.0,030.5,023.5,8.0,0000.0,0002.85,0001.70,0001.36
2023-12-29 03:34:00,SystemResetWarning,0834.5,5.00,000.00,022.1,020.7,000.0,030.5,023.4,8.0,0000.0,0002.87,0001.74,0001.34
2023-12-29 03:35:00,SystemResetWarning,0834.5,5.00,000.00,022.1,020.7,000.0,030.5,023.4,8.0,0000.0,0002.78,0001.76,0001.34
2023-12-29 03:36:00,SystemResetWarning,0834.5,5.00,000.00,022.1,020.7,000.0,030.5,023.4,8.0,0000.0,0002.60,0001.72,0001.34
2023-12-29 03:37:00,SystemResetWarning,0834.4,5.00,000.00,022.1,020.7,000.0,030.5,023.4,8.0,0000.0,0002.70,0001.69,0001.33
2023-12-29 03:38:00,SystemResetWarning,0834.4,5.00,000.00,022.1,020.7,000.0,030.5,023.4,8.0,0000.0,0002.74,0001.70,0001.32
2023-12-29 03:39:00,SystemResetWarning,0834.5,5.00,000.00,022.1,020.7,000.0,030.5,023.4,8.1,0000.0,0003.13,0001.69,0001.30
2023-12-29 03:40:00,SystemResetWarning,0834.4,5.00,000.00,022.0,020.7,000.0,030.5,023.4,8.1,0000.0,0003.47,0001.68,0001.29
2023-12-29 03:41:00,SystemResetWarning,0834.4,5.00,000.00,022.0,020.7,000.0,030.4,023.4,8.1,0000.0,0004.05,0001.69,0001.27
2023-12-29 03:42:00,SystemResetWarning,0834.4,5.00,000.00,022.0,020.7,000.0,030.4,023.3,8.0,0000.0,0004.14,0001.65,0001.26
2023-12-29 03:43:00,SystemResetWarning,0834.4,5.00,000.00,022.0,020.7,000.0,030.4,023.3,8.1,0000.0,0004.05,0001.61,0001.24
2023-12-29 03:44:00,SystemResetWarning,0834.4,4.99,000.00,022.0,020.6,000.0,030.4,023.3,8.0,0000.0,0004.24,0001.57,0001.22
2023-12-29 03:45:00,SystemResetWarning,0834.5,5.00,000.00,022.0,020.6,000.0,030.4,023.3,8.2,0000.0,0004.12,0001.49,0001.20
2023-12-29 03:46:00,SystemResetWarning,0834.5,5.00,000.00,022.0,020.6,000.0,030.4,023.3,8.2,0000.0,0004.02,0001.44,0001.19
2023-12-29 03:47:00,SystemResetWarning,0834.4,5.00,000.00,022.0,020.6,000.0,030.4,023.3,8.1,0000.0,0003.96,0001.42,0001.18
2023-12-29 03:48:00,SystemResetWarning,0834.4,5.00,000.00,022.0,020.6,000.0,030.4,023.3,8.1,0000.0,0003.86,0001.44,0001.17
2023-12-29 03:49:00,SystemResetWarning,0834.4,5.00,000.00,022.0,020.5,000.0,030.3,023.3,8.1,0000.0,0003.84,0001.43,0001.16
2023-12-29 03:50:00,SystemResetWarning,0834.4,5.00,000.00,021.9,020.5,000.0,030.3,023.3,8.0,0000.0,0003.55,0001.45,0001.16
2023-12-29 03:51:00,SystemResetWarning,0834.4,5.00,000.00,021.9,020.6,000.0,030.3,023.3,8.1,0000.0,0003.17,0001.45,0001.16
2023-12-29 03:52:00,SystemResetWarning,0834.5,4.99,000.00,021.9,020.6,000.0,030.3,023.2,8.6,0000.0,0002.57,0001.42,0001.17
2023-12-29 03:53:00,SystemResetWarning,0834.4,5.01,000.00,021.9,020.5,000.0,030.3,023.2,8.6,0000.0,0002.47,0001.42,0001.17
2023-12-29 03:54:00,SystemResetWarning,0834.4,5.00,000.00,021.9,020.5,000.0,030.3,023.2,8.6,0000.0,0002.43,0001.43,0001.17
2023-12-29 03:55:00,SystemResetWarning,0834.4,5.00,000.00,021.9,020.5,000.0,030.3,023.2,8.5,0000.0,0002.07,0001.41,0001.15
2023-12-29 03:56:00,SystemResetWarning,0834.4,5.00,000.00,021.8,020.5,000.0,030.3,023.2,8.6,0000.0,0002.07,0001.41,0001.15
2023-12-29 03:57:00,SystemResetWarning,0834.4,4.99,000.00,021.8,020.5,000.0,030.3,023.2,8.3,0000.0,0002.04,0001.40,0001.14
2023-12-29 03:58:00,SystemResetWarning,0834.4,4.99,000.00,021.8,020.5,000.0,030.2,023.2,8.5,0000.0,0002.10,0001.42,0001.14
2023-12-29 03:59:00,SystemResetWarning,0834.5,5.00,000.00,021.8,020.5,000.0,030.2,023.1,8.6,0000.0,0002.04,0001.39,0001.12
